This is the latest recevied weather packets stored in our database for station/object AB4KY. If no packets are shown the sender has not sent any weather packets the latest 10 day(s).
| Time | Temp. | Humidity | Pressure | Rain* | Wind** | Luminosity | Snow |
|---|---|---|---|---|---|---|---|
| 1777557998 | 10.56° C | 74% | 1015.3 hPa | 0 mm | - | 488 W/m² | - |
| 1777557694 | 10.56° C | 72% | 1015.2 hPa | 0 mm | - | 366 W/m² | - |
| 1777557391 | 10° C | 75% | 1015.4 hPa | 0 mm | - | 344 W/m² | - |
| 1777557087 | 10° C | 74% | 1015.3 hPa | 0 mm | - | 418 W/m² | - |
| 1777556782 | 10° C | 76% | 1015 hPa | 0 mm | - | 372 W/m² | - |
| 1777556480 | 9.44° C | 75% | 1014.9 hPa | 0 mm | - | 355 W/m² | - |
| 1777556179 | 9.44° C | 74% | 1015 hPa | 0 mm | - | 318 W/m² | - |
| 1777555875 | 9.44° C | 77% | 1015.1 hPa | 0 mm | - | 301 W/m² | - |
| 1777555571 | 8.89° C | 78% | 1014.9 hPa | 0 mm | - | 57 W/m² | - |
| 1777555268 | 8.89° C | 76% | 1014.9 hPa | 0 mm | - | 149 W/m² | - |
| 1777554964 | 8.33° C | 78% | 1014.8 hPa | 0 mm | - | 43 W/m² | - |
| 1777554661 | 8.33° C | 79% | 1015.1 hPa | 0 mm | - | 37 W/m² | - |
| 1777554358 | 8.33° C | 82% | 1014.8 hPa | 0 mm | - | 35 W/m² | - |
| 1777554055 | 7.78° C | 82% | 1014.9 hPa | 0 mm | - | 35 W/m² | - |
| 1777553751 | 7.78° C | 81% | 1014.8 hPa | 0 mm | - | 31 W/m² | - |
| 1777553448 | 7.78° C | 83% | 1015.1 hPa | 0 mm | - | 29 W/m² | - |
| 1777553144 | 7.78° C | 84% | 1015.1 hPa | 0 mm | - | 31 W/m² | - |
| 1777552844 | 7.22° C | 84% | 1015 hPa | 0 mm | - | 28 W/m² | - |
| 1777552540 | 7.78° C | 85% | 1015 hPa | 0 mm | - | 28 W/m² | - |
| 1777552236 | 7.22° C | 86% | 1015 hPa | 0 mm | - | 27 W/m² | - |
| 1777551933 | 7.22° C | 88% | 1014.8 hPa | 0 mm | - | 26 W/m² | - |
| 1777551631 | 7.22° C | 89% | 1015 hPa | 0 mm | - | 23 W/m² | - |
| 1777551328 | 6.67° C | 89% | 1014.7 hPa | 0 mm | - | 22 W/m² | - |
| 1777551024 | 6.67° C | 89% | 1014.6 hPa | 0 mm | - | 22 W/m² | - |
| 1777550721 | 6.67° C | 90% | 1014.5 hPa | 0 mm | - | 21 W/m² | - |
* Rain latest hour (hover to see other rain measurements)
** Current wind speed in m/s (hover to see current wind gust speed)